FLOCK 4S-23 (47545 NORAD) Tracking and Keplerian Element Data

This shows tracking and keplerian element data for the satellite.

Feedback or suggestion? Click here.




ElementValue
Catalog47545
NameFLOCK 4S-23
Epoch Orbit1353
Epoch Day105.70057286
Epoch Year2021
RAAN168.0348
Inclination97.4961
Eccentricity0.0010251
Argument of Perigee320.7003
Mean Anonmoly39.3483
Mean Motion15.12797315
Decay Rate1.641E-05
L11 47545U 21006EF 21105.70057286 .00001641 00000-0 97084-4 0 9992
L22 47545 97.4961 168.0348 0010251 320.7003 39.3483 15.12797315 13530

Live tracking and technical data element details for FLOCK 4S-23 (NORAD 47545). FLOCK 4S-23 can be tracked NOW for your location showing map with azimuth and elevation plus other details from your city location.

Track the satellite on the map from your city or location and see movement details for azimuth, elevation, latitude, longitude, range, height, and movement on the map or in text.







IsCatalogInMostPopularTable: catalog: 47545, numindb: 17
Update: records affected: 1



GetName: 47545 FLOCK 4S-23

Hit Count: updated at: Fri, 16 Apr 2021 10:09:57 GMT